Back to catalog

SES 8

AliveCommunicationsGEO
NORAD 39460·PAYLOAD·🇱🇺 Luxembourg

Launched Dec 3, 2013 from Cape Canaveral Space Force Station

Loading…

TLE

FreshSource: CelesTrak SupGP

Epoch: Sep 13, 2026, 23:30 UTC

1 39460C 13071A   26256.97916667 -.00000180  00000+0  00000+0 0  2560
2 39460   0.0449 266.4471 0002082 243.6360 290.3848  1.00271512    11

Track SES 8 in real time with AllMySat

Download on the App Store